Regional Weather Roundup
Issued by NWS Albany, NY

Home | Current Version | Previous Version | Text Only | Print | Product List | Glossary On
Versions: 1 2 3 4 5 6 7 8 9 10 11 12 13 14 15 16 17 18 19 20 21 22 23 24 25 26 27 28
000
ASUS41 KALY 210710
RWRALY

NEW YORK STATE HOURLY WEATHER ROUNDUP
NATIONAL WEATHER SERVICE ALBANY NY
300 AM EDT MON AUG 21 2017

NOTE: "FAIR" INDICATES FEW OR NO CLOUDS BELOW 12,000 FEET WITH NO
SIGNIFICANT WEATHER AND/OR NO OBSTRUCTIONS TO VISIBILITY.

NYZ032-033-038>043-046>054-057>066-NYZ062>081-082-084-210800-
EAST


CITY           SKY/WX    TMP DP  RH WIND       PRES   REMARKS
ALBANY         PTCLDY    62  59  90 CALM      30.15S
GLENS FALLS    CLEAR     56  55  97 CALM      30.14S
POUGHKEEPSIE   CLEAR     62  60  93 CALM      30.15F
NEWBURGH       CLEAR     64  63  94 CALM      30.19S
MONTGOMERY     CLEAR     61  59  93 CALM      30.17S
WHITE PLAINS   CLEAR     68  61  78 NW5       30.17S
ISLIP          CLEAR     66  61  84 CALM      30.16S
NEW YORK CITY  CLEAR     77  63  61 CALM      30.15F
CENTRAL PARK   CLEAR     74  60  61 W3        30.19F
$$

NYZ005>009-017-018-044>046-055-056-210800-
CENTRAL


CITY           SKY/WX    TMP DP  RH WIND       PRES   REMARKS
FULTON         CLEAR     61  59  93 CALM      30.14R FOG
SYRACUSE       PTCLDY    63  61  93 CALM      30.13S
ROME           CLEAR     61  59  93 CALM      30.16R
ELMIRA         MOCLDY    60  59  96 CALM      30.18S
BINGHAMTON     PTCLDY    64  60  87 SW7       30.20S
MONTICELLO     CLEAR     59  58  96 CALM      30.23S
$$

NYZ026>034-041>043-087-210800-
NORTH


CITY           SKY/WX    TMP DP  RH WIND       PRES   REMARKS
WATERTOWN      CLEAR     67  61  81 SW3       30.11S
FORT DRUM      NOT AVBL
OGDENSBURG     FAIR      65  63  94 S3        30.10R
MASSENA        CLEAR     65  63  93 SW7       30.09S
SARANAC LAKE   CLEAR     51  51 100 CALM      30.15S
PLATTSBURGH    CLEAR     60  58  92 S3        30.09S
$$

NYZ001>004-010>016-019>021-085-210800-
WEST


CITY           SKY/WX    TMP DP  RH WIND       PRES   REMARKS
NIAGARA FALLS  CLOUDY    66  60  81 E3        30.11S
BUFFALO        CLOUDY    66  60  81 SE5       30.12S
DUNKIRK        PTCLDY    73  58  59 S10       30.12S
JAMESTOWN      CLOUDY    63  58  83 S5        30.19S
WELLSVILLE     MOCLDY    63  55  75 CALM      30.23S
ROCHESTER      MOCLDY    65  60  84 SW7       30.14S
PENN YAN       CLOUDY    64  59  83 SW6       30.17S
$$

             KEY
       WCI = WIND CHILL INDEX
       VSB = VISIBILITY
       HX  = HEAT INDEX
$$




USA.gov is the U.S. government's official web portal to all federal, state and local government web resources and services.